Weather in Rybnoe

Russia / Ryazan Oblast     54°43′50″N   39°30′19″E
temp.,
°C
wind,
m/s
gust,
m/s
humid.,
%
clouds,
%
prec.,
mm/h
press.,
hPa
HPBL,
m
19 september, sun
sun1900:00+5e51267100 0.0 1024372
03:00+5e51267100 0.0 1023394
06:00+5e61269100 0.0 1023438
09:00+7e71261100 0.0 1022617
12:00+9ese71153100 0.0 1021963
15:00+9e61153100 0.1 1021901
18:00+8e71369100 0.5 1020853
21:00+7e81685100 1.6 1019760
20 september, mon
mon2000:00+7e81691100 3.9 1017779
03:00+6e91794100 12.0 1016795
06:00+6e91794100 6.9 1015908
09:00+6e91693100 10.1 1015964
12:00+6e91593100 1.4 1016991
15:00+6e91591100 2.3 1015951
18:00+6e91591100 0.1 1015878
21:00+6e91593100 0.8 1015836
21 september, tue
tue2100:00+6ese81594100 3.4 1015818
03:00+7ese71395100 6.1 1014675
06:00+7ese61296100 1.5 1014632
09:00+7ese61197100 4.8 1014569
12:00+8ese61096100 1.0 1013503
15:00+9ese6993100 1.0 1013620
18:00+9ese5109498 0.0 1013485
21:00+9e51097100 0.3 1013447
22 september, wed
wed2200:00+8e4898100 1.9 1013374
03:00+8e2598100 3.1 1013323
06:00+8e2398100 0.6 1013184
09:00+9s1186100 0.6 1015424
12:00+11se117158 0.0 1016800
15:00+12ene326880 0.0 1016903
18:00+9ne358920 0.1 1017119
21:00+9ene3688100 0.1 1017195
23 september, thu
thu2300:00+9ene3695100 0.0 1017222
03:00+9ene3794100 0.1 1017260
06:00+8ene3794100 0.0 1016259
09:00+9e3589100 0.2 1016292
12:00+10ese348787 0.8 1016360
15:00+13e2479100 0.8 1014421
18:00+11e1183100 0.8 101411
21:00+9wsw3388100 0.8 101449